Temperature
22 22 21 21 21 21 20 20 20 20 20 19 19 19 19 19 19 18 18 18 18 18 18 18 18 18 18 18 18 18 18 18 17 18 18 18 18 18 18 18 18 18 18
22 22 22 21 21 21 21 20 20 20 20 20 20 19 19 19 19 19 18 18 18 18 18 18 18 18 18 18 18 18 18 18 17 17 17 18 18 18 19 18 18 18 18
22 22 22 22 22 21 21 21 20 20 20 20 19 19 19 19 19 19 19 19 18 18 18 18 18 18 18 18 18 18 18 18 18 18 17 17 18 18 18 18 18 18 18
22 22 22 22 22 22 21 21 21 21 20 20 20 19 19 19 19 19 19 19 18 18 18 18 18 18 18 18 18 18 18 18 18 18 18 17 17 17 18 18 18 18 18
22 23 23 23 22 22 22 21 21 21 20 20 20 20 20 20 19 19 19 19 19 18 18 18 18 18 18 18 18 18 18 18 18 18 18 17 17 17 17 18 18 18 18
22 23 23 23 22 22 22 22 21 21 20 20 20 20 20 20 19 19 19 19 19 19 18 18 18 18 18 18 18 18 18 18 18 18 18 17 17 17 17 17 18 18 18
22 22 22 22 22 22 22 22 21 21 21 20 20 20 20 20 20 19 19 19 19 19 19 18 18 18 18 18 18 18 18 18 18 18 18 17 17 17 17 17 17 17 18
23 23 23 23 23 22 22 22 21 21 21 20 20 20 20 20 20 19 19 19 19 19 19 19 19 18 18 18 18 18 18 18 18 18 18 17 17 17 17 17 17 17 17
22 22 23 23 23 22 22 22 22 21 21 21 20 20 20 20 20 19 19 19 19 19 19 19 18 18 18 18 18 18 18 18 18 18 17 17 17 17 17 17 17 17 17
22 22 22 22 22 22 22 22 22 21 21 21 20 20 20 20 20 19 19 19 19 19 19 19 18 18 18 18 18 18 18 18 18 17 17 17 17 17 17 17 17 17 16
22 22 22 22 22 22 22 22 21 21 21 21 20 20 20 20 19 19 19 19 19 19 19 18 18 18 18 18 18 18 18 17 17 17 17 17 17 17 17 17 17 17 16
22 22 22 22 22 22 22 21 21 21 21 21 20 20 20 20 19 19 19 19 19 19 18 18 18 18 18 18 18 18 18 17 17 17 17 17 17 17 17 17 17 17 16
21 22 22 22 22 22 22 21 21 21 21 21 20 20 20 19 19 19 19 19 19 19 18 18 18 18 18 18 18 18 18 17 17 17 17 17 17 17 17 17 17 17 16
20 21 21 21 21 21 21 21 21 21 20 20 20 20 20 19 19 19 19 19 18 18 18 18 18 18 18 18 18 17 17 17 17 17 17 17 17 17 17 16 16 16 16
20 20 20 21 21 21 21 21 21 20 20 20 20 19 19 19 19 19 18 18 18 18 18 18 18 18 17 18 17 17 17 17 17 17 17 17 16 16 16 16 16 16 16
19 19 20 20 20 20 20 20 20 20 20 20 19 19 19 19 18 18 18 18 18 18 17 17 17 17 17 17 17 17 17 17 17 17 17 16 16 16 16 16 16 16 15
18 19 19 20 20 20 20 20 20 20 19 19 19 19 18 18 18 18 18 17 17 17 17 17 17 17 17 17 16 16 16 16 16 16 16 16 16 16 16 16 15 15 15
18 19 19 19 19 19 19 19 19 19 19 19 18 18 18 18 18 17 17 17 17 17 17 17 16 16 16 16 16 16 16 16 16 15 15 15 15 15 15 15 15 15 15
18 19 19 19 19 19 19 18 18 18 18 18 18 18 18 17 17 17 17 17 16 16 16 16 16 16 16 16 16 16 15 15 15 15 15 14 14 14 14 14 14 14 14
18 18 18 18 18 18 18 18 18 18 18 17 17 17 17 17 16 16 16 16 16 16 16 16 16 16 16 16 15 15 15 15 14 14 14 14 14 14 14 14 14 14 14
17 17 17 17 18 18 17 18 18 17 17 17 17 16 16 16 16 16 16 16 15 15 15 15 15 15 15 15 15 14 14 14 14 14 14 14 14 13 13 13 13 13 13
16 16 17 17 17 17 17 17 17 17 17 17 16 16 16 15 15 15 15 15 15 15 15 14 14 14 14 14 14 14 14 13 13 13 13 13 13 13 13 13 13 13 13
16 16 16 16 16 16 16 17 17 17 16 16 15 15 15 15 15 15 15 14 14 14 14 14 14 14 14 14 13 13 13 13 13 13 13 13 12 12 12 12 12 12 12
15 15 15 15 16 16 16 16 16 16 15 15 15 15 14 14 14 14 14 14 14 14 13 13 13 13 13 13 13 13 13 12 12 12 12 12 12 12 12 12 12 12 11
15 15 15 15 15 15 15 15 15 15 15 14 14 14 14 14 14 13 13 13 13 13 13 13 12 12 12 12 12 12 12 12 12 12 11 12 12 12 11 11 11 11 11
14 14 14 14 14 14 14 14 14 14 14 14 14 13 13 13 13 13 13 13 12 12 12 12 12 12 12 12 12 11 11 11 11 11 11 11 11 11 11 11 10 10 10
Wind_Speed
8 7 8 8 8 7 7 7 7 6 6 4 4 4 3 3 3 4 6 8 8 8 7 4 4 5 4 4 4 3 2 1 1 1 2 2 2 2 2 3 3 4 6
7 8 8 9 9 9 8 8 8 7 7 6 4 3 3 3 3 3 4 7 8 9 8 6 5 5 4 4 4 4 2 2 2 2 1 2 3 2 2 2 3 4 4
10 9 10 10 10 10 10 10 9 8 7 6 4 3 3 2 2 2 3 4 7 8 7 7 6 5 5 5 5 5 5 3 2 2 3 2 2 2 2 2 2 3 3
9 9 10 11 11 12 10 9 9 8 7 7 6 6 5 4 4 3 3 3 5 6 7 6 6 6 5 5 5 5 4 4 3 2 2 2 2 1 2 2 2 3 3
10 10 11 11 11 11 10 9 8 8 7 7 8 7 5 4 3 3 4 3 3 4 6 6 6 6 5 6 5 5 5 4 4 4 3 2 2 2 2 3 3 2 2
9 9 8 7 7 8 8 9 8 7 7 7 7 8 7 6 5 4 4 3 3 3 5 6 6 6 5 6 6 6 6 5 5 4 4 4 3 3 3 4 3 3 2
9 9 9 9 8 9 9 8 9 8 7 8 8 8 7 7 7 6 5 5 4 4 5 5 5 5 6 6 5 6 6 6 6 6 5 5 4 3 3 3 3 3 2
9 10 10 10 9 9 8 8 9 8 8 9 8 7 6 6 5 6 5 6 5 5 5 5 5 6 6 6 5 5 5 5 6 6 5 5 5 4 4 4 3 2 2
6 8 8 9 9 9 9 9 8 8 8 8 7 6 7 7 6 6 6 5 5 5 5 6 6 5 6 6 6 5 5 5 6 6 6 5 4 4 5 4 4 4 3
4 6 7 8 8 8 8 8 8 9 8 7 7 7 6 6 6 6 6 5 5 4 4 5 5 5 5 5 5 5 5 5 5 4 5 5 4 4 4 4 4 4 4
4 4 5 6 6 6 7 7 7 7 7 7 6 6 6 6 6 6 6 5 4 5 5 5 5 5 6 5 6 6 6 6 6 5 6 6 5 5 4 4 4 5 4
2 3 3 4 5 6 7 7 8 8 8 8 7 7 6 6 6 6 6 5 5 5 5 5 5 6 6 6 6 7 6 7 7 7 6 6 5 6 5 5 5 5 5
1 2 2 3 3 4 5 6 7 8 8 8 8 7 7 7 7 7 5 5 5 5 5 5 5 6 6 6 7 7 7 7 7 6 7 7 6 6 5 5 5 5 5
2 2 2 2 3 3 4 5 5 6 7 7 7 7 8 7 7 6 5 5 5 5 5 4 4 5 5 5 6 6 6 6 6 6 6 6 6 7 6 6 6 5 4
2 2 2 2 2 2 2 3 4 5 6 6 6 7 6 6 5 5 5 4 4 5 4 4 3 3 4 4 5 5 5 4 4 4 5 6 6 7 6 6 6 5 4
3 3 3 2 1 2 2 3 3 4 4 5 5 4 4 4 5 5 4 4 4 4 3 4 4 4 4 4 5 4 4 3 4 4 4 5 5 6 6 6 6 7 6
3 4 3 3 2 2 3 3 3 3 4 4 4 4 4 4 4 5 4 4 4 4 3 4 4 5 5 5 4 5 4 3 3 3 3 4 4 4 4 4 5 5 6
2 2 2 2 1 1 1 2 3 3 3 3 3 3 3 3 3 4 4 3 3 3 4 4 4 4 4 4 3 4 3 2 3 4 4 4 3 3 4 4 3 3 4
2 2 3 3 2 1 2 2 2 2 3 3 2 2 3 2 2 3 3 3 3 2 3 3 3 3 3 2 3 2 1 2 3 3 3 3 3 3 4 4 3 3 4
1 1 2 2 2 1 2 3 3 2 2 1 1 2 2 3 3 3 2 2 2 3 2 2 2 2 2 1 2 3 2 2 3 3 3 4 4 4 5 5 4 4 4
1 2 2 2 2 2 3 3 3 2 2 2 2 1 2 3 3 3 2 2 2 1 0 1 1 1 2 2 1 3 3 3 3 3 3 3 3 4 5 5 5 6 4
1 2 2 1 1 2 3 3 3 2 2 3 3 2 1 2 2 3 2 2 2 2 1 1 1 1 1 1 0 1 2 3 3 3 3 2 2 3 4 4 5 4 3
1 1 2 1 1 1 3 3 3 2 3 3 2 1 1 1 1 2 2 2 2 2 2 2 1 1 1 0 1 0 1 2 2 2 3 3 3 3 3 3 3 3 2
1 1 2 1 0 0 1 2 2 3 4 3 2 2 1 1 1 1 2 2 2 2 2 2 2 1 1 1 0 1 1 0 1 1 1 2 2 1 1 1 1 2 2
0 1 1 1 1 1 0 0 1 3 4 3 2 1 1 1 1 1 1 2 2 3 3 3 3 2 2 2 2 2 1 1 2 1 0 0 0 1 1 1 1 1 2
1 1 0 1 1 0 0 0 1 2 3 3 2 2 1 1 1 1 1 4 2 1 1 2 2 1 2 2 2 2 2 2 3 2 1 1 2 2 2 2 2 2 2
Wind_Direction
205 188 186 181 174 173 173 181 182 177 165 158 161 166 184 184 180 191 194 194 194 189 182 180 175 173 178 187 180 170 171 186 150 101 348 331 306 273 256 249 243 241 239
196 191 186 183 182 182 183 187 191 182 180 178 168 163 159 172 181 184 184 193 192 189 189 183 185 180 178 181 182 171 168 187 168 150 110 332 328 317 275 252 242 248 245
200 198 193 192 187 188 190 195 194 186 180 166 144 129 112 107 145 175 189 193 191 192 191 187 186 185 184 192 195 183 176 188 200 179 162 176 244 298 309 271 255 257 251
197 197 196 196 195 196 193 191 189 185 177 166 166 168 177 190 196 185 190 188 188 189 190 187 187 188 191 196 202 193 185 177 198 204 204 198 185 200 301 309 287 272 260
197 198 201 202 200 193 190 189 184 185 179 175 176 178 189 193 172 160 176 190 188 189 190 189 188 192 197 201 205 195 193 191 193 197 189 195 207 205 213 270 290 294 273
195 196 197 192 193 188 186 185 181 188 184 183 185 186 188 181 171 177 185 195 194 195 195 194 194 196 199 204 208 201 199 204 205 207 200 192 190 198 201 234 259 275 281
189 189 189 188 189 188 187 184 182 190 188 192 198 197 193 186 190 192 196 196 200 207 210 201 196 199 204 205 199 200 209 207 207 213 217 216 215 192 189 210 241 257 274
187 191 194 192 191 189 186 183 187 190 190 197 202 198 194 195 203 201 198 202 208 214 209 201 204 205 203 204 197 204 214 211 213 220 216 221 225 210 203 199 204 252 272
185 191 192 193 191 190 189 185 186 191 193 198 198 198 201 201 205 204 203 207 209 210 202 201 207 212 208 204 196 207 216 211 218 222 219 223 227 217 218 212 203 204 247
176 188 190 191 191 190 188 182 188 194 193 191 197 202 203 206 207 200 206 207 205 204 195 202 208 213 212 207 201 208 214 214 224 222 222 230 231 221 218 217 215 210 216
187 186 187 186 181 177 182 185 193 198 194 191 194 195 197 199 200 205 211 207 196 188 194 202 208 214 216 212 209 217 216 221 230 229 225 234 229 223 222 218 213 215 211
189 176 168 166 173 181 190 193 196 199 200 193 191 193 192 193 200 210 210 202 198 195 197 202 204 215 217 210 210 220 221 223 230 231 225 234 229 225 224 217 216 216 213
143 123 116 135 165 180 187 194 197 198 194 188 188 189 194 199 205 210 207 200 198 200 198 200 211 217 217 213 214 215 221 224 227 226 226 230 222 227 224 219 217 216 215
135 128 137 152 165 170 172 177 187 189 186 183 186 191 199 203 207 204 199 198 198 203 207 208 217 221 220 217 217 216 222 228 228 224 226 229 223 226 223 221 218 211 208
159 162 166 172 151 144 155 167 177 180 177 175 184 198 202 197 197 202 202 194 200 211 208 208 220 224 225 226 219 217 224 226 233 236 237 235 229 225 219 219 210 201 204
200 198 188 167 144 154 161 160 168 178 163 167 183 187 189 195 197 203 201 195 205 211 206 214 219 225 236 243 227 210 217 221 231 244 250 248 241 232 218 213 204 197 203
214 208 199 195 184 182 166 165 172 163 162 172 183 185 183 191 199 197 193 199 209 205 211 221 220 230 238 235 224 207 206 216 234 241 245 246 244 224 219 216 213 215 218
220 200 181 167 162 151 137 139 134 138 158 168 181 194 185 186 180 176 184 198 204 208 217 224 225 230 248 229 202 181 199 221 240 244 239 233 235 228 204 205 210 229 237
224 192 176 157 137 135 144 119 114 117 135 158 177 185 179 178 177 183 193 190 193 207 215 216 213 217 241 220 186 158 196 242 259 262 255 237 236 225 192 193 205 230 253
91 123 133 121 124 151 141 128 137 135 151 169 179 171 154 167 183 189 189 180 188 212 209 220 228 226 247 235 184 166 184 238 261 266 258 239 231 227 197 204 208 229 248
70 99 118 137 159 150 136 139 142 177 199 149 111 125 151 167 169 166 169 169 170 167 171 229 268 267 262 258 212 182 189 220 249 261 262 256 224 217 204 206 218 227 232
90 100 112 128 124 131 141 156 183 195 142 118 115 119 153 159 152 155 160 148 140 148 182 217 284 293 274 261 144 167 208 219 241 258 262 262 239 223 212 212 220 214 211
122 111 126 134 128 151 155 177 199 147 120 116 119 116 100 120 132 144 146 139 149 171 200 208 236 283 304 345 66 4 238 217 232 263 262 256 241 228 230 225 212 204 208
123 116 124 137 145 56 143 184 172 136 127 134 132 126 103 78 91 119 151 167 179 183 198 218 226 248 280 297 355 311 319 275 239 284 288 266 250 239 245 258 238 224 224
19 132 157 186 225 228 194 138 133 136 141 142 145 139 132 129 106 88 171 191 207 203 199 214 214 217 245 266 246 228 232 226 220 187 312 306 254 254 262 264 261 239 233
246 165 132 291 275 234 246 89 124 142 144 148 171 183 167 152 152 135 46 45 73 55 129 200 203 232 232 248 261 247 224 206 175 151 191 244 255 246 245 248 262 260 251
Height
1492 1495 1498 1500 1503 1505 1507 1509 1511 1513 1515 1517 1519 1520 1522 1524 1526 1528 1530 1532 1534 1536 1537 1539 1541 1542 1544 1545 1547 1548 1550 1551 1552 1552 1552 1553 1553 1553 1553 1554 1554 1554 1555
1490 1492 1495 1498 1500 1503 1505 1508 1510 1512 1514 1516 1518 1520 1522 1524 1526 1527 1529 1531 1533 1535 1537 1538 1540 1541 1543 1544 1546 1547 1548 1549 1550 1551 1551 1551 1552 1551 1551 1552 1552 1552 1553
1486 1489 1492 1494 1497 1500 1502 1505 1508 1510 1512 1514 1517 1519 1521 1522 1524 1526 1528 1530 1532 1533 1535 1537 1539 1540 1541 1543 1544 1545 1546 1547 1549 1549 1551 1551 1550 1550 1550 1550 1550 1550 1551
1483 1486 1488 1491 1493 1496 1500 1503 1506 1508 1510 1513 1515 1517 1518 1520 1522 1524 1527 1529 1530 1532 1533 1535 1537 1538 1540 1541 1543 1543 1545 1546 1547 1548 1548 1549 1549 1549 1548 1548 1548 1548 1548
1479 1482 1484 1487 1490 1494 1497 1501 1504 1506 1509 1511 1513 1515 1517 1519 1521 1523 1525 1527 1528 1530 1532 1533 1535 1536 1537 1539 1540 1541 1542 1543 1544 1545 1546 1546 1547 1547 1547 1546 1546 1546 1546
1476 1478 1481 1485 1488 1491 1494 1497 1500 1503 1506 1509 1511 1512 1514 1517 1519 1521 1523 1525 1526 1528 1530 1531 1533 1534 1535 1536 1537 1538 1539 1540 1541 1542 1543 1543 1543 1544 1544 1544 1543 1543 1543
1472 1475 1478 1481 1484 1488 1491 1494 1497 1500 1503 1506 1508 1510 1512 1515 1517 1519 1521 1522 1524 1525 1527 1529 1530 1532 1533 1534 1535 1535 1536 1537 1538 1539 1539 1540 1540 1541 1541 1541 1541 1540 1540
1468 1471 1474 1478 1481 1485 1488 1491 1494 1497 1500 1502 1505 1507 1510 1512 1515 1517 1519 1520 1521 1523 1525 1526 1528 1529 1530 1531 1532 1533 1533 1534 1535 1535 1536 1536 1537 1538 1538 1539 1539 1538 1537
1466 1469 1473 1476 1479 1482 1485 1488 1491 1494 1496 1499 1502 1504 1507 1509 1511 1514 1516 1517 1519 1521 1522 1524 1525 1526 1527 1528 1529 1529 1530 1531 1531 1532 1532 1533 1533 1534 1534 1535 1536 1536 1534
1465 1468 1471 1474 1477 1480 1483 1485 1489 1491 1493 1496 1498 1501 1503 1506 1508 1510 1512 1514 1516 1518 1519 1521 1522 1523 1524 1525 1525 1526 1526 1527 1528 1528 1529 1529 1530 1530 1530 1531 1531 1532 1532
1464 1467 1469 1472 1475 1478 1480 1482 1486 1488 1490 1492 1495 1497 1499 1502 1505 1507 1508 1510 1512 1513 1515 1517 1518 1519 1520 1521 1521 1522 1523 1523 1524 1524 1525 1525 1526 1526 1526 1527 1527 1528 1528
1464 1466 1468 1470 1473 1475 1478 1479 1482 1484 1487 1489 1491 1493 1496 1498 1501 1503 1504 1506 1508 1509 1511 1513 1513 1514 1515 1516 1517 1518 1519 1519 1519 1520 1520 1521 1521 1522 1522 1522 1523 1523 1524
1463 1464 1466 1468 1470 1473 1474 1476 1478 1481 1483 1485 1487 1489 1492 1495 1497 1499 1501 1503 1504 1506 1507 1508 1509 1510 1511 1512 1513 1514 1514 1515 1515 1515 1516 1516 1517 1517 1517 1518 1518 1519 1519
1462 1463 1465 1466 1468 1470 1471 1474 1476 1478 1480 1482 1483 1485 1488 1490 1492 1495 1497 1498 1500 1501 1503 1504 1505 1506 1507 1508 1509 1509 1509 1510 1510 1510 1511 1512 1512 1512 1513 1513 1514 1515 1515
1461 1462 1463 1465 1466 1468 1470 1472 1473 1475 1476 1478 1480 1482 1485 1487 1489 1491 1493 1494 1496 1497 1499 1500 1501 1502 1503 1504 1504 1505 1505 1505 1505 1506 1506 1506 1507 1507 1508 1509 1509 1510 1510
1459 1460 1461 1463 1464 1466 1468 1469 1471 1472 1474 1475 1477 1479 1481 1484 1485 1487 1489 1490 1492 1493 1494 1495 1496 1497 1498 1499 1500 1500 1500 1501 1501 1501 1501 1502 1502 1502 1503 1503 1504 1504 1505
1458 1459 1460 1461 1463 1464 1466 1467 1468 1470 1472 1473 1475 1476 1478 1479 1481 1483 1485 1486 1487 1489 1490 1491 1492 1492 1493 1494 1495 1495 1496 1496 1496 1496 1496 1497 1497 1497 1497 1498 1499 1499 1500
1456 1457 1458 1459 1461 1462 1464 1465 1467 1468 1469 1470 1472 1474 1474 1476 1478 1479 1480 1482 1484 1484 1485 1487 1487 1488 1489 1490 1490 1491 1491 1491 1492 1492 1492 1491 1491 1492 1492 1492 1493 1494 1495
1455 1456 1457 1458 1459 1460 1462 1463 1465 1466 1468 1468 1469 1470 1472 1474 1475 1476 1477 1478 1480 1481 1482 1483 1484 1485 1485 1486 1486 1487 1487 1487 1487 1487 1487 1487 1486 1487 1487 1488 1487 1488 1490
1455 1456 1456 1457 1458 1459 1461 1462 1462 1464 1465 1466 1467 1468 1469 1471 1472 1473 1475 1476 1476 1477 1478 1479 1480 1481 1481 1481 1482 1482 1482 1482 1482 1482 1482 1482 1482 1483 1483 1483 1483 1483 1485
1454 1455 1455 1456 1457 1458 1459 1460 1460 1462 1463 1464 1465 1467 1468 1469 1469 1471 1472 1473 1474 1474 1475 1476 1477 1477 1477 1478 1478 1478 1477 1477 1478 1478 1478 1478 1478 1479 1479 1479 1479 1480 1481
1453 1453 1454 1454 1455 1456 1457 1457 1459 1460 1461 1462 1463 1465 1466 1466 1467 1468 1469 1469 1470 1471 1472 1473 1473 1473 1474 1474 1474 1474 1474 1474 1474 1474 1474 1474 1475 1475 1475 1476 1476 1476 1477
1451 1452 1453 1453 1454 1455 1455 1456 1457 1458 1459 1461 1462 1463 1463 1464 1465 1465 1466 1467 1468 1469 1469 1470 1470 1470 1470 1470 1470 1471 1471 1471 1472 1471 1471 1471 1472 1472 1472 1472 1472 1472 1472
1450 1451 1451 1451 1452 1453 1454 1455 1456 1456 1457 1459 1460 1461 1461 1462 1462 1463 1463 1464 1465 1465 1466 1466 1466 1467 1467 1466 1466 1467 1468 1468 1468 1468 1468 1468 1468 1468 1468 1468 1468 1468 1468
1449 1450 1450 1450 1451 1451 1452 1453 1454 1454 1455 1456 1457 1458 1459 1460 1460 1461 1462 1462 1463 1463 1463 1463 1464 1463 1463 1464 1464 1465 1465 1465 1465 1464 1464 1464 1464 1464 1464 1464 1464 1464 1464
1448 1448 1448 1449 1449 1450 1450 1451 1452 1453 1453 1454 1455 1456 1457 1458 1458 1458 1459 1460 1461 1461 1461 1462 1462 1461 1462 1462 1462 1462 1462 1462 1462 1462 1461 1460 1460 1460 1460 1460 1460 1460 1460